Dew Point Data


Current

Temp 62.0 F. Dew Point 60.1 F.


Dew Point Comfort Scale

dewpoints

Date, Time Temperature Dew Point
Thu May 10 00:08:04 2018 73.0 F. 57.9 F.
Thu May 10 01:08:04 2018 73.0 F. 57.9 F.
Thu May 10 02:08:04 2018 64.0 F. 59.0 F.
Thu May 10 03:08:05 2018 61.0 F. 57.9 F.
Thu May 10 04:08:04 2018 62.0 F. 57.9 F.
Thu May 10 05:08:04 2018 61.0 F. 57.9 F.
Thu May 10 06:08:04 2018 61.0 F. 57.9 F.
Thu May 10 07:08:04 2018 58.0 F. 57.0 F.
Thu May 10 08:08:04 2018 68.0 F. 62.1 F.
Thu May 10 09:08:05 2018 73.0 F. 64.0 F.
Thu May 10 10:08:05 2018 77.0 F. 64.0 F.
Thu May 10 11:08:04 2018 81.0 F. 60.1 F.
Thu May 10 12:08:06 2018 83.0 F. 63.0 F.
Thu May 10 13:08:05 2018 85.0 F. 61.0 F.
Thu May 10 14:08:05 2018 87.0 F. 61.0 F.
Thu May 10 15:08:05 2018 86.0 F. 61.0 F.
Thu May 10 16:08:05 2018 84.0 F. 62.1 F.
Thu May 10 17:08:04 2018 82.0 F. 63.0 F.
Thu May 10 18:08:05 2018 82.0 F. 64.9 F.
Thu May 10 19:08:05 2018 79.0 F. 64.9 F.
Thu May 10 20:08:07 2018 72.0 F. 64.9 F.
Thu May 10 21:08:05 2018 71.0 F. 64.0 F.
Thu May 10 22:08:05 2018 70.0 F. 64.0 F.
Thu May 10 23:08:05 2018 71.0 F. 64.0 F.
Fri May 11 00:08:05 2018 71.0 F. 64.0 F.
Fri May 11 01:08:05 2018 67.0 F. 62.1 F.
Fri May 11 02:08:05 2018 66.0 F. 61.0 F.
Fri May 11 03:08:05 2018 65.0 F. 60.1 F.
Fri May 11 04:08:05 2018 63.0 F. 57.9 F.
Fri May 11 05:08:04 2018 61.0 F. 57.0 F.
Fri May 11 06:08:05 2018 62.0 F. 57.9 F.
Fri May 11 07:08:05 2018 62.0 F. 60.1 F.
Fri May 11 08:08:05 2018 69.0 F. 60.1 F.
Fri May 11 09:08:07 2018 74.0 F. 62.1 F.
Fri May 11 10:08:05 2018 77.0 F. 62.1 F.
Fri May 11 11:08:05 2018 81.0 F. 62.1 F.
Fri May 11 12:08:04 2018 82.0 F. 62.1 F.
Fri May 11 13:08:04 2018 82.0 F. 62.1 F.
Fri May 11 14:08:04 2018 85.0 F. 61.0 F.
Fri May 11 15:08:05 2018 86.0 F. 63.0 F.
Fri May 11 16:08:05 2018 82.0 F. 59.0 F.
Fri May 11 17:08:05 2018 83.0 F. 55.9 F.
Fri May 11 18:08:05 2018 84.0 F. 55.9 F.
Fri May 11 19:08:05 2018 84.0 F. 55.9 F.
Fri May 11 20:08:05 2018 81.0 F. 55.9 F.
Fri May 11 21:08:08 2018 79.0 F. 54.0 F.
Fri May 11 22:08:05 2018 74.0 F. 55.9 F.
Fri May 11 23:08:04 2018 70.0 F. 55.9 F.
Sat May 12 00:08:04 2018 69.0 F. 57.0 F.
Sat May 12 01:08:05 2018 69.0 F. 60.1 F.
Sat May 12 02:08:04 2018 73.0 F. 60.1 F.
Sat May 12 03:08:04 2018 73.0 F. 60.1 F.
Sat May 12 04:08:05 2018 73.0 F. 60.1 F.
Sat May 12 05:08:07 2018 70.0 F. 60.1 F.
Sat May 12 06:08:05 2018 69.0 F. 60.1 F.
Sat May 12 07:08:05 2018 70.0 F. 60.1 F.
Sat May 12 08:08:05 2018 74.0 F. 62.1 F.
Sat May 12 09:08:05 2018 77.0 F. 62.1 F.
Sat May 12 10:08:05 2018 80.0 F. 64.9 F.
Sat May 12 11:08:05 2018 82.0 F. 64.9 F.
Sat May 12 12:08:04 2018 83.0 F. 64.0 F.
Sat May 12 13:08:04 2018 85.0 F. 62.1 F.
Sat May 12 14:08:04 2018 86.0 F. 63.0 F.
Sat May 12 15:08:05 2018 86.0 F. 63.0 F.
Sat May 12 16:08:05 2018 85.0 F. 62.1 F.
Sat May 12 17:08:05 2018 84.0 F. 62.1 F.
Sat May 12 18:08:05 2018 84.0 F. 62.1 F.
Sat May 12 19:08:05 2018 83.0 F. 61.0 F.
Sat May 12 20:08:04 2018 79.0 F. 60.1 F.
Sat May 12 21:08:05 2018 73.0 F. 61.0 F.
Sat May 12 22:08:05 2018 69.0 F. 61.0 F.
Sat May 12 23:08:05 2018 66.0 F. 61.0 F.
Sun May 13 00:08:05 2018 69.0 F. 60.1 F.
Sun May 13 01:08:04 2018 66.0 F. 60.1 F.
Sun May 13 02:08:05 2018 65.0 F. 60.1 F.
Sun May 13 03:08:04 2018 64.0 F. 60.1 F.
Sun May 13 04:08:04 2018 64.0 F. 61.0 F.
Sun May 13 05:08:05 2018 65.0 F. 60.1 F.
Sun May 13 06:08:05 2018 65.0 F. 61.0 F.
Sun May 13 07:08:05 2018 68.0 F. 63.0 F.
Sun May 13 08:08:05 2018 73.0 F. 64.0 F.
Sun May 13 09:08:05 2018 77.0 F. 64.9 F.
Sun May 13 10:08:05 2018 81.0 F. 66.0 F.
Sun May 13 11:08:06 2018 83.0 F. 66.9 F.
Sun May 13 12:08:05 2018 85.0 F. 69.1 F.
Sun May 13 13:08:05 2018 85.0 F. 69.1 F.
Sun May 13 14:08:05 2018 86.0 F. 66.0 F.
Sun May 13 15:08:05 2018 88.0 F. 68.0 F.
Sun May 13 16:08:05 2018 88.0 F. 68.0 F.
Sun May 13 17:08:04 2018 87.0 F. 66.9 F.
Sun May 13 18:08:05 2018 86.0 F. 66.9 F.
Sun May 13 19:08:05 2018 83.0 F. 68.0 F.
Sun May 13 20:08:05 2018 78.0 F. 68.0 F.
Sun May 13 21:08:05 2018 76.0 F. 66.9 F.
Sun May 13 22:08:05 2018 73.0 F. 66.0 F.
Sun May 13 23:08:05 2018 73.0 F. 66.0 F.
Mon May 14 00:08:04 2018 69.0 F. 64.0 F.
Mon May 14 01:08:04 2018 71.0 F. 63.0 F.
Mon May 14 02:08:05 2018 68.0 F. 64.0 F.
Mon May 14 03:08:04 2018 66.0 F. 63.0 F.
Mon May 14 04:08:04 2018 65.0 F. 63.0 F.
Mon May 14 05:08:04 2018 64.0 F. 62.1 F.
Mon May 14 06:08:05 2018 63.0 F. 62.1 F.
Mon May 14 07:08:05 2018 68.0 F. 64.9 F.
Mon May 14 08:08:05 2018 74.0 F. 66.0 F.
Mon May 14 09:08:04 2018 79.0 F. 68.0 F.
Mon May 14 10:08:04 2018 82.0 F. 68.0 F.
Mon May 14 11:08:05 2018 84.0 F. 69.1 F.
Mon May 14 12:08:05 2018 86.0 F. 68.0 F.
Mon May 14 13:08:04 2018 88.0 F. 69.1 F.
Mon May 14 14:08:04 2018 89.0 F. 66.9 F.
Mon May 14 15:08:04 2018 89.0 F. 64.9 F.
Mon May 14 16:08:05 2018 88.0 F. 64.0 F.
Mon May 14 17:08:05 2018 88.0 F. 63.0 F.
Mon May 14 18:08:05 2018 87.0 F. 62.1 F.
Mon May 14 19:08:04 2018 84.0 F. 63.0 F.
Mon May 14 20:08:04 2018 78.0 F. 66.0 F.
Mon May 14 21:08:06 2018 76.0 F. 61.0 F.
Mon May 14 22:08:05 2018 73.0 F. 55.9 F.
Mon May 14 23:08:05 2018 66.0 F. 57.0 F.
Tue May 15 00:08:05 2018 66.0 F. 57.9 F.
Tue May 15 01:08:05 2018 68.0 F. 57.9 F.
Tue May 15 02:08:04 2018 69.0 F. 57.9 F.
Tue May 15 03:08:05 2018 69.0 F. 57.9 F.
Tue May 15 04:08:05 2018 69.0 F. 60.1 F.
Tue May 15 05:08:05 2018 68.0 F. 61.0 F.
Tue May 15 06:08:05 2018 67.0 F. 61.0 F.
Tue May 15 07:08:05 2018 67.0 F. 62.1 F.
Tue May 15 08:08:05 2018 72.0 F. 64.0 F.
Tue May 15 09:08:05 2018 77.0 F. 63.0 F.
Tue May 15 10:08:05 2018 78.0 F. 63.0 F.
Tue May 15 11:08:05 2018 80.0 F. 63.0 F.
Tue May 15 12:08:05 2018 81.0 F. 63.0 F.
Tue May 15 13:08:05 2018 82.0 F. 63.0 F.
Tue May 15 14:08:05 2018 83.0 F. 63.0 F.
Tue May 15 15:08:05 2018 82.0 F. 62.1 F.
Tue May 15 16:08:05 2018 80.0 F. 64.0 F.
Tue May 15 17:08:04 2018 83.0 F. 64.0 F.
Tue May 15 18:08:04 2018 81.0 F. 63.0 F.
Tue May 15 19:08:04 2018 81.0 F. 62.1 F.
Tue May 15 20:08:05 2018 76.0 F. 64.9 F.
Tue May 15 21:08:04 2018 74.0 F. 64.0 F.
Tue May 15 22:08:04 2018 72.0 F. 64.0 F.
Tue May 15 23:08:05 2018 70.0 F. 64.9 F.
Wed May 16 00:08:05 2018 70.0 F. 64.9 F.
Wed May 16 01:08:04 2018 68.0 F. 64.9 F.
Wed May 16 02:08:05 2018 66.0 F. 64.0 F.
Wed May 16 03:08:05 2018 66.0 F. 64.0 F.
Wed May 16 04:08:05 2018 66.0 F. 64.0 F.
Wed May 16 05:08:05 2018 67.0 F. 64.0 F.
Wed May 16 06:08:05 2018 66.0 F. 64.0 F.
Wed May 16 07:08:04 2018 67.0 F. 64.9 F.
Wed May 16 08:08:05 2018 71.0 F. 66.0 F.
Wed May 16 09:08:05 2018 72.0 F. 66.0 F.
Wed May 16 10:08:05 2018 74.0 F. 66.0 F.
Wed May 16 11:08:04 2018 77.0 F. 66.9 F.
Wed May 16 12:08:05 2018 80.0 F. 69.1 F.
Wed May 16 13:08:05 2018 82.0 F. 66.9 F.
Wed May 16 14:08:05 2018 82.0 F. 66.9 F.
Wed May 16 15:08:05 2018 83.0 F. 66.9 F.
Wed May 16 16:08:04 2018 85.0 F. 64.0 F.
Wed May 16 17:08:05 2018 82.0 F. 64.0 F.
Wed May 16 18:08:05 2018 82.0 F. 64.9 F.
Wed May 16 19:08:05 2018 77.0 F. 66.9 F.
Wed May 16 20:08:05 2018 77.0 F. 66.9 F.
Wed May 16 21:08:05 2018 74.0 F. 66.9 F.
Wed May 16 22:08:07 2018 73.0 F. 66.0 F.
Wed May 16 23:08:04 2018 71.0 F. 62.1 F.
Thu May 17 00:08:05 2018 67.0 F. 64.0 F.
Thu May 17 01:08:05 2018 67.0 F. 64.0 F.
Thu May 17 02:08:04 2018 67.0 F. 64.0 F.
Thu May 17 03:08:05 2018 66.0 F. 64.0 F.
Thu May 17 04:08:05 2018 65.0 F. 63.0 F.
Thu May 17 05:08:04 2018 64.0 F. 63.0 F.
Thu May 17 06:08:05 2018 64.0 F. 62.1 F.
Thu May 17 07:08:05 2018 65.0 F. 64.0 F.
Thu May 17 08:08:05 2018 69.0 F. 66.0 F.
Thu May 17 09:08:05 2018 69.0 F. 66.0 F.
Thu May 17 10:08:10 2018 73.0 F. 68.0 F.
Thu May 17 11:08:05 2018 76.0 F. 66.9 F.
Thu May 17 12:08:04 2018 79.0 F. 68.0 F.
Thu May 17 13:08:05 2018 79.0 F. 66.9 F.
Thu May 17 14:08:05 2018 79.0 F. 66.9 F.
Thu May 17 15:08:05 2018 75.0 F. 64.9 F.
Thu May 17 16:08:05 2018 78.0 F. 68.0 F.
Thu May 17 17:08:06 2018 78.0 F. 68.0 F.
Thu May 17 18:08:05 2018 79.0 F. 68.0 F.
Thu May 17 19:08:04 2018 73.0 F. 66.9 F.
Thu May 17 20:08:05 2018 72.0 F. 62.1 F.
Thu May 17 21:08:05 2018 72.0 F. 62.1 F.
Thu May 17 22:08:04 2018 69.0 F. 64.9 F.
Thu May 17 23:08:07 2018 66.0 F. 64.0 F.
Fri May 18 00:08:05 2018 65.0 F. 64.0 F.
Fri May 18 01:08:06 2018 65.0 F. 64.0 F.
Fri May 18 02:08:04 2018 65.0 F. 64.0 F.
Fri May 18 03:08:05 2018 65.0 F. 64.0 F.
Fri May 18 04:08:05 2018 65.0 F. 64.0 F.
Fri May 18 05:08:05 2018 65.0 F. 64.0 F.
Fri May 18 06:08:04 2018 66.0 F. 64.9 F.
Fri May 18 07:08:05 2018 66.0 F. 64.9 F.
Fri May 18 08:08:05 2018 66.0 F. 64.9 F.
Fri May 18 09:08:04 2018 67.0 F. 66.0 F.
Fri May 18 10:08:05 2018 67.0 F. 66.0 F.
Fri May 18 11:08:05 2018 70.0 F. 66.9 F.
Fri May 18 12:08:04 2018 71.0 F. 68.0 F.
Fri May 18 13:08:05 2018 72.0 F. 66.9 F.
Fri May 18 14:08:09 2018 72.0 F. 69.1 F.
Fri May 18 15:08:05 2018 73.0 F. 68.0 F.
Fri May 18 16:08:05 2018 72.0 F. 66.9 F.
Fri May 18 17:08:05 2018 71.0 F. 66.9 F.
Fri May 18 18:08:05 2018 70.0 F. 68.0 F.
Fri May 18 19:08:06 2018 69.0 F. 66.9 F.
Fri May 18 20:08:07 2018 69.0 F. 68.0 F.
Fri May 18 21:08:05 2018 68.0 F. 66.9 F.
Fri May 18 22:08:05 2018 67.0 F. 66.0 F.
Fri May 18 23:08:04 2018 68.0 F. 66.9 F.
Sat May 19 00:08:04 2018 67.0 F. 66.0 F.
Sat May 19 01:08:04 2018 67.0 F. 66.0 F.
Sat May 19 02:08:04 2018 66.0 F. 66.0 F.
Sat May 19 03:08:05 2018 66.0 F. 64.9 F.
Sat May 19 04:08:05 2018 66.0 F. 64.9 F.
Sat May 19 05:08:05 2018 67.0 F. 66.0 F.
Sat May 19 06:08:04 2018 67.0 F. 66.0 F.
Sat May 19 07:08:04 2018 67.0 F. 64.9 F.
Sat May 19 08:08:05 2018 69.0 F. 66.0 F.
Sat May 19 09:08:05 2018 71.0 F. 64.9 F.
Sat May 19 10:08:05 2018 72.0 F. 64.9 F.
Sat May 19 11:08:04 2018 75.0 F. 66.9 F.
Sat May 19 12:08:05 2018 78.0 F. 68.0 F.
Sat May 19 13:08:05 2018 79.0 F. 66.9 F.
Sat May 19 14:08:05 2018 82.0 F. 66.9 F.
Sat May 19 15:08:05 2018 82.0 F. 66.0 F.
Sat May 19 16:08:05 2018 82.0 F. 68.0 F.
Sat May 19 17:08:04 2018 77.0 F. 66.9 F.
Sat May 19 18:08:04 2018 68.0 F. 63.0 F.
Sat May 19 19:08:05 2018 68.0 F. 64.9 F.
Sat May 19 20:08:05 2018 68.0 F. 64.9 F.
Sat May 19 21:08:05 2018 69.0 F. 64.0 F.
Sat May 19 22:08:05 2018 67.0 F. 64.0 F.
Sat May 19 23:08:04 2018 67.0 F. 64.0 F.
Sun May 20 00:08:05 2018 66.0 F. 63.0 F.
Sun May 20 01:08:04 2018 65.0 F. 62.1 F.
Sun May 20 02:08:05 2018 67.0 F. 61.0 F.
Sun May 20 03:08:04 2018 68.0 F. 60.1 F.
Sun May 20 04:08:04 2018 62.0 F. 60.1 F.